Location: Gad�tanya
(48.0500°N, 20.8500°E)
Time: 22:25:05
(UTC+00:00)

Cosmos 2221 - Pass Details

Date: 05 July 2020
Orbit: 592 x 616 km, 82.5° (Epoch: 05 August)

Event Time Altitude Azimuth Distance (km) Brightness Sun altitude
Rises 20:53:26 0° 348° (NNW) 2,897 7.6 -15.2°
Reaches altitude 10° 20:55:41 10° 347° (NNW) 1,985 6.4 -15.4°
Maximum altitude 21:00:03 73° 264° (W) 643 2.6 -15.7°
Enters shadow 21:02:28 26° 183° (S) 1,218 3.6 -15.9°
